Other Public Products
Issued by NWS Grand Forks, ND

Home | Current Version | Previous Version | Text Only | Print | Product List | Glossary Off
Versions: 1 2 3 4 5 6 7 8 9 10 11 12 13 14 15 16 17 18 19 20 21 22 23 24 25 26 27 28 29 30 31 32 33 34 35 36 37 38 39 40 41 42 43 44 45 46 47 48 49 50

000
FPUS83 KFGF 231510
OPUFGF
PRAIRIE TO PINES WEATHER ROUNDUP
NATIONAL WEATHER SERVICE EASTERN NORTH DAKOTA/GRAND FORKS ND
1000 AM CDT THU OCT 23 2014

 **SATELLITE DATA USED TO AUGMENT SKY COVER AT AUTOMATED STATIONS**
 *****  WEATHER ACROSS EASTERN NORTH DAKOTA  *****

CITY           SKY/WX    TMP DP  RH WIND       PRES   REMARKS
GRAND FORKS    SUNNY     51  42  71 SW7       29.86S
GRAND FORKS AF SUNNY     53  43  67 SW9       29.86S
GRAND CITY NWS   N/A     52 N/A N/A SW5         N/A
BUXTON         NOT AVBL
DEVILS LAKE    SUNNY     50  36  57 SW9       29.84S
FARGO          SUNNY     49  41  74 S7        29.92S
WAHPETON ARPT  SUNNY     45  39  81 SE5       29.96S
$$

 *****  WEATHER ACROSS CENTRAL AND WESTERN NORTH DAKOTA  *****

CITY           SKY/WX    TMP DP  RH WIND       PRES   REMARKS
JAMESTOWN      SUNNY     49  38  65 SW9       29.91S
BISMARCK       SUNNY     42  35  76 CALM      29.92S
MINOT          SUNNY     48  34  58 SW13      29.83F
MINOT AFB      SUNNY     49  37  64 SW8       29.83S
GARRISON         N/A     45  39  79 CALM      29.86S
WILLISTON      SUNNY     40  33  76 S5        29.85R
DICKINSON      SUNNY     48  31  51 SW9       29.88R
HETTINGER      SUNNY     44  32  62 CALM      29.94R
$$

 *****  OTHER OBSERVATIONS NORTHEAST NORTH DAKOTA  *****

CITY           SKY/WX    TMP DP  RH WIND       PRES   REMARKS
WALHALLA         N/A     50  41  71 W5        29.82R
LANGDON        FAIR      46  39  76 SW14      29.82S
CAVALIER       FAIR      50  39  66 SW5       29.82S
GRAFTON        FAIR      50  43  76 SW6       29.84S
CANDO          FAIR      48  41  76 SW8       29.85R
FORT TOTTEN      N/A     49  37  61 S6        29.95S
ROLLA          FAIR      48  36  61 SW13      29.83R
RUGBY          FAIR      46  39  76 SW9       29.84S
 ***** THE ABOVE OBSERVATIONS ARE NON NWS ARE NOT QUALITY
        CONTROLLED AND MAY MIS-REPORT RAIN FOR SNOW...
$$

 *****  OTHER OBSERVATIONS SOUTHEAST NORTH DAKOTA *****

CITY           SKY/WX    TMP DP  RH WIND       PRES   REMARKS
COOPERSTOWN    NOT AVBL
VALLEY CITY    FAIR      48  45  87 S5        29.91F
OAKES            N/A     41  41 100 S9        29.95S
GWINNER        SUNNY     46  43  87 SW12      29.96R
BUFFALO        NOT AVBL
WYNDMERE         N/A     50  45  81 W7          N/A
 ***** THE ABOVE OBSERVATIONS ARE NON NWS ARE NOT QUALITY
       CONTROLLED AND MAY MIS-REPORT RAIN FOR SNOW...
$$

  *****  WEATHER ACROSS NORTHERN MINNESOTA  *****

CITY           SKY/WX    TMP DP  RH WIND       PRES   REMARKS
FLAG ISLAND    CLOUDY    50  46  87 S6        29.81S
WARROAD        MOSUNNY   52  46  82 S9        29.83F
ROSEAU         SUNNY     52  46  82 S12       29.84S
HALLOCK        SUNNY     48  45  87 S9        29.83S
THF RVR FALLS  SUNNY     48  43  81 SW13      29.88S
HALSTAD          N/A     48  41  77 S10         N/A
FOSSTON        SUNNY     50  45  81 S13       29.91R
BAUDETTE       PTSUNNY   51  46  83 S12       29.86S
WASKISH        MOSUNNY   52  48  87 CALM      29.89S
CROOKSTON      SUNNY     46  43  87 S9        29.89F
$$
  *****  WEATHER ACROSS CENTRAL AND WEST MINNESOTA  *****

CITY           SKY/WX    TMP DP  RH WIND       PRES   REMARKS
BEMIDJI        MOSUNNY   50  47  90 S9        29.91S
PARK RAPIDS    CLOUDY    49  48  97 S8        29.94S FOG
WADENA         FOG       46  46 100 S3        29.95S VSB 1/2
DETROIT LAKES  SUNNY     50  45  81 SW7       29.95R
MOORHEAD       SUNNY     46  45  93 S6        29.94S
FERGUS FALLS   SUNNY     48  46  93 S5        29.97S
ELBOW LAKE     FAIR      47  46  97 S6        29.97R
MORRIS MN      SUNNY     46  46 100 S5        29.96S
STAPLES        CLOUDY    48  46  93 S5        29.96S FOG
WHEATON        SUNNY     48  43  81 SW5       29.98S
$$
  *****  WEATHER ELSEWHERE ACROSS MINNESOTA  *****

CITY           SKY/WX    TMP DP  RH WIND       PRES   REMARKS
DULUTH         FOG       48  46  93 SW8       29.96S VSB 1/4
INTRNTL FALLS  CLOUDY    51  48  89 S8        29.89S
ELY            NOT AVBL
CLOQUET        FOG       48  46  93 SW6       29.97S VSB 3/4
BRAINERD       CLOUDY    51  50  96 SW8       29.97R
HIBBING        CLOUDY    50  47  89 SW3       29.95R FOG
ALEXANDRIA     SUNNY     50  48  93 SW8       29.98R
SAINT CLOUD    CLOUDY    52  51  97 S8        29.99R FOG
MINNEAPOLIS    PTSUNNY   54  51  90 S5        30.00S
$$

  *****  WEATHER ACROSS SOUTH DAKOTA  *****

CITY           SKY/WX    TMP DP  RH WIND       PRES   REMARKS
SIOUX FALLS    MOSUNNY   52  50  93 CALM      30.04R
BROOKINGS      NOT AVBL
WATERTOWN      MOSUNNY   44  43  96 SE6       30.01R
HURON          MOSUNNY   44  40  85 SE5       30.00S
SISSETON         N/A     55  41  59 W12       29.95R
ABERDEEN       SUNNY     44  39  82 S6        29.98S
MITCHELL       SUNNY     48  45  89 SE5       30.03R
PIERRE         SUNNY     44  37  76 SW6       29.97S
MOBRIDGE       SUNNY     48  42  80 S7        29.93S
RAPID CITY     MOSUNNY   46  28  49 S5        29.99R
$$

  *****  SOME WEATHER IN NEARBY STATES *****

CITY           SKY/WX    TMP DP  RH WIND       PRES   REMARKS
GLASGOW MT     PTSUNNY   42  35  76 SE9       29.79R
GREAT FALLS MT CLOUDY    51  35  54 SW9       29.82R
CHEYENNE WY    MOSUNNY   55  32  41 SW14      30.17R
SCOTTSBLUFF NE PTSUNNY   40  34  79 CALM      30.11R
OMAHA NE       CLOUDY    59  56  89 N8        30.07R FOG
DES MOINES IA  PTSUNNY   56  53  90 SW8       30.05S
DAVENPORT IA   CLOUDY    50  40  68 S13       30.13S
CHICAGO IL     PTSUNNY   49  41  74 S10       30.21F
EAU CLAIRE WI  LGT RAIN  48  46  93 S7        30.04R
LA CROSSE WI   LGT RAIN  49  46  90 S10       30.06S FOG
$$

  *****  SOME NATIONAL WEATHER *****

CITY           SKY/WX    TMP DP  RH WIND       PRES   REMARKS
LA GUARDIA NY  LGT RAIN  52  47  83 N17G28    29.71R
RALEIGH NC     SUNNY     58  41  53 VRB6      30.02S
ATLANTA GA     MOSUNNY   56  42  59 W5        30.14F
NEW ORLEANS LA MOSUNNY   67  52  58 NE9       30.12R
OKLAHOMA CITY  MOSUNNY   64  56  75 S13       30.13S
ALBUQUERQUE NM SUNNY     54  42  64 W3        30.30R
SALT LAKE CITY PTSUNNY   51  34  52 S7        30.14R
LOS ANGELES CA PTCLDY    65  55  70 VRB3      29.97R
BOISE ID       LGT RAIN  54  45  71 SE6       30.04R
SEATTLE WA     LGT RAIN  51  48  89 SE20G26   29.75F
$$

*** WEATHER ACROSS MANITOBA...SASKATCHEWAN AND ONTARIO ***
                ***ONTARIO***

CITY           SKY/WX    TMP DP  RH WIND       PRES   REMARKS
GERALDTON      PTSUNNY   45  39  81 S12       30.01S
THUNDER BAY    LGT RAIN  46  45  93 SE3       30.00S
SIOUX LOOKOUT  NOT AVBL
TORONTO        SUNNY     54  43  66 N12G17    30.15F
BIG TROUT LK   CLOUDY    46  41  81 S3        29.78R
PICKLE LAKE    LGT RAIN  46  37  71 S10       29.85R
DRYDEN         CLOUDY    50  48  93 SW9G18    29.84F
KENORA         NOT AVBL
$$
                *** MANITOBA***

CITY           SKY/WX    TMP DP  RH WIND       PRES   REMARKS
BRANDON        MOSUNNY   43  39  87 W14       29.79R
DAUPHIN        CLOUDY    52  46  82 W9        29.73R
ISLAND LAKE    NOT AVBL
PILOT MOUND    NOT AVBL
THE PAS        DRIZZLE   45  45 100 N5        29.71R FOG
THOMPSON       LGT RAIN  37  37 100 NE12G18   29.75S
WINNIPEG       NOT AVBL
LYNN LAKE      FOG       36  36 100 E13G20    29.78F VSB 3/8
GILLAM         LGT RAIN  37  37 100 NE14G22   29.78S
$$
                ***SASKATCHEWAN***

CITY           SKY/WX    TMP DP  RH WIND       PRES   REMARKS
ESTEVAN        PTSUNNY   45  36  70 S10       29.79F
KINDERSLEY     NOT AVBL
LLOYDMINSTER   MOCLDY    43  36  75 S9        29.49F
PRINCE ALBERT  FOG       43  43 100 SE7       29.68S VSB 1/2
REGINA         PTSUNNY   37  34  87 SE8       29.74S
YORKTON        MOSUNNY   46  41  81 VRB2      29.74F
N. BATTLEFORD  MOCLDY    43  37  81 E12       29.58F



USA.gov is the U.S. government's official web portal to all federal, state and local government web resources and services.